This is the latest recevied weather packets stored in our database for station/object CE2LOH-10. If no packets are shown the sender has not sent any weather packets the latest 10 day(s).
| Time | Temp. | Humidity | Pressure | Rain* | Wind** | Luminosity | Snow |
|---|---|---|---|---|---|---|---|
| 1778350104 | 20° C | 42% | 992.5 hPa | - | - | - | - |
| 1778349204 | 20° C | 43% | 992.6 hPa | - | - | - | - |
| 1778348304 | 19.44° C | 44% | 992.7 hPa | - | - | - | - |
| 1778347404 | 18.89° C | 45% | 992.9 hPa | - | - | - | - |
| 1778346504 | 18.89° C | 46% | 993.1 hPa | - | - | - | - |
| 1778345604 | 18.33° C | 46% | 993.2 hPa | - | - | - | - |
| 1778344704 | 17.78° C | 47% | 993.4 hPa | - | - | - | - |
| 1778343803 | 17.78° C | 48% | 993.6 hPa | - | - | - | - |
| 1778342903 | 17.22° C | 49% | 993.7 hPa | - | - | - | - |
| 1778342003 | 16.67° C | 50% | 993.8 hPa | - | - | - | - |
| 1778341103 | 16.11° C | 50% | 993.9 hPa | - | - | - | - |
| 1778340203 | 15.56° C | 51% | 993.9 hPa | - | - | - | - |
| 1778339303 | 15.56° C | 52% | 994.1 hPa | - | - | - | - |
| 1778338403 | 15° C | 52% | 994.2 hPa | - | - | - | - |
| 1778337502 | 14.44° C | 53% | 994.5 hPa | - | - | - | - |
| 1778336602 | 13.89° C | 53% | 994.4 hPa | - | - | - | - |
| 1778335702 | 13.89° C | 53% | 994.6 hPa | - | - | - | - |
| 1778334802 | 13.33° C | 53% | 994.6 hPa | - | - | - | - |
| 1778333902 | 13.33° C | 52% | 994.6 hPa | - | - | - | - |
| 1778333002 | 12.78° C | 52% | 994.6 hPa | - | - | - | - |
| 1778332102 | 12.78° C | 52% | 994.6 hPa | - | - | - | - |
| 1778331202 | 12.78° C | 50% | 994.7 hPa | - | - | - | - |
| 1778330301 | 11.11° C | 53% | 994.6 hPa | - | - | - | - |
| 1778329401 | 11.11° C | 52% | 994.6 hPa | - | - | - | - |
| 1778328501 | 11.11° C | 52% | 994.4 hPa | - | - | - | - |
* Rain since midnight (hover to see other rain measurements)
** Current wind speed in m/s (hover to see current wind gust speed)